OBJECT N, 44891

Orbit data source: Space-Track

You're viewing an Uncataloged Satellite

Recently launched and/or uncataloged satellites may have evolving metadata. Metadata may include but not limited to: Owner, Maufacturer, Bus, Motor, and Mission.

OBJECT N, 44891 is a satellite in SSO that was launched on Fri, 20 Dec 2019 UTC launched from the Taiyaun Space Center, China (TSC). Unknown objects in Earth's orbit typically refer to objects detected orbiting the Earth but have not yet been identified or cataloged. These objects could be anything from previously untracked satellites, spent rocket stages, debris from satellite collisions, or even natural meteoroids temporarily captured by Earth's gravity.

Loading next visibility...
Identifier
44891, 2019-093N
Orbit
SSO
Country
Flag of TBDTBD
Related business
Manufacturer
SAST
Mission
Spacecraft
Bus & Motor
Unknown
Mass
Unknown
Launch date (UTC)
2019-12-20 (6 years ago)
Launch vehicle
Unknown
Launch site
Taiyaun Space Center, China (TSC)
Object type
Unknown
Shape & HBR
Unknown shape, 0.1 m
Radar Cross Section
Small (<0.1 m²)

Expand to show TLE details & history
Last TLE update: 7 hours ago

TLE from 7 hours ago
0 OBJECT N
1 44891U 19093N   26104.85180904  .00015099  00000-0  49090-3 0  9995
2 44891  98.0548 265.9509 0006240 261.5508  98.5024 15.31995370345077
Epoch: 2026-04-14T20:26Z
TLE epoch observation values (Epoch: 2026-04-14T20:26:36.301Z)
Latitude
-0.00005°
Longitude
116.27753°
Altitude
473.581 km
Speed
7.629 km/s
True Right ascension
17h 43m 48s
True Declination
0° 00' 00"
Sunlit
Object was in full shadow at epoch
Visualization orbit readout
Latitude
Unknown
Longitude
Unknown
Altitude
Unknown
Speed
Unknown
Apparent Right ascension
Unknown
Apparent Declination
Unknown
Sunlit
N/A
Visualization observer readout
Local Sidereal Time
10:06:10
Azimuth
Unknown
Elevation
Unknown
Doppler factor
Unknown
Orbital elements
Apogee altitude
471.11 km
Perigee altitude
462.567 km
Semi-major axis
6,844.976 km
Eccentricity
0.00062
Inclination
98.0548°
RAAN
265.9509°
Arg. of periapsis
261.5508°
True anomaly
98.57311°
Mean anomaly
98.5024°
Eccentric anomaly
98.53776°
Mean motion
3.83253 °/min
Orbital period
93.93 mins
BSTAR
0.0004909
Loading maneuver chart data...
Computing Atmospheric mass density...
Loading historical data...
Loading historical data...
Loading historical data...
Loading historical data...
Loading historical data...
Loading historical data...
Loading historical data...

Documentation

Showing up to 5 results
|